Location: ????
(32.1228°N, 34.8377°E)
Time: 02:33:07
(UTC+00:00)

SL-4 R/B - Pass Details

Date: 21 September 2020
Orbit: 428 x 666 km, 51.6° (Epoch: 23 October)

Event Time Altitude Azimuth Distance (km) Brightness Sun altitude
Exits shadow 01:09:50 42° 51° (NE) 895 3.4 -29.5°
Drops below altitude 10° 01:12:58 10° 47° (NE) 2,028 5.7 -28.9°
Sets 01:15:22 0° 47° (NE) 2,964 6.8 -28.4°
